Weather in Perm

Russia / Perm Krai     58°00′37″N   56°13′45″E
temp.,
°C
wind,
m/s
gust,
m/s
humid.,
%
clouds,
%
prec.,
mm/h
press.,
hPa
HPBL,
m
25 january, mon
mon2523:00−10ssw1196100 0.7 102421
02:00−10s1197100 0.0 102421
05:00−5sse1296100 0.1 102567
08:00−3se3597100 0.8 1024139
11:00+2sw31099100 1.4 1024345
14:00+2sw411100100 0.1 1024443
17:00+1sw51298100 0.3 1024500
20:00−1sw41292100 0.1 1025529
26 january, tue
tue2623:00−2sw41296100 0.3 1026557
02:00−1wsw4119396 0.3 1026621
05:00−2wsw4129298 0.3 1027564
08:00−3sw3994100 0.0 1027480
11:00−6ssw3993100 0.1 1027443
14:00−4sw4991100 0.0 1027629
17:00−3sw3994100 0.1 1026544
20:00−3sw31094100 0.1 1026641
27 january, wed
wed2723:00−3sw3994100 0.3 1025555
02:00−3ssw499498 0.1 1025454
05:00−4sw3109499 0.3 1026505
08:00−4ssw389499 0.1 1026489
11:00−5ssw4991100 0.1 1026582
14:00−4ssw4890100 0.1 1026522
17:00−6ssw4992100 0.1 1024456
20:00−5ssw41192100 0.1 1024664
28 january, thu
thu2823:00−5ssw41291100 0.1 1021612
02:00−5ssw51290100 0.1 1021648
05:00−5ssw51388100 0.1 1020589
08:00−5sw51392100 0.8 1019654
11:00−5sw51394100 1.8 1018658
14:00−4sw51195100 1.7 1019625
17:00−3sw41196100 3.4 1019560
20:00−4sw3896100 1.5 1021432
29 january, fri
fri2923:00−5ssw2796100 2.2 1021345
02:00−7ssw2594100 0.1 1021162
05:00−9sse2295100 0.1 102141
08:00−9se2394100 0.0 102179
11:00−8se2592100 0.0 1020166
14:00−6se3690100 0.0 1019262
17:00−7ese4990100 0.0 1018290
20:00−6ese4128999 0.0 1017358